SB KEPS @ AMSAT $ORB22230.N
2Line Orbital Elements 22230.AMSAT
HR AMSAT ORBITAL ELEMENTS FOR AMATEUR SATELLITES IN NASA FORMAT
FROM WA5QGD FORT WORTH,TX August 18, 2022
BID: ORB22230.N
DECODE 2-LINE ELSETS WITH THE FOLLOWING KEY:
1 AAAAAU 00 0 0 BBBBB.BBBBBBBB .CCCCCCCC 00000-0 00000-0 0 DDDZ
2 AAAAA EEE.EEEE FFF.FFFF GGGGGGG HHH.HHHH III.IIII JJ.JJJJJJJJKKKKKZ
KEY: A-CATALOGNUM B-EPOCHTIME C-DECAY D-ELSETNUM E-INCLINATION F-RAAN
G-ECCENTRICITY H-ARGPERIGEE I-MNANOM J-MNMOTION K-ORBITNUM Z-CHECKSUM
TO ALL RADIO AMATEURS BT
AO-07
1 07530U 74089B 22230.68884579 -.00000029 00000-0 10934-3 0 9999
2 07530 101.9094 210.7662 0011866 283.7903 249.4868 12.53656352185507
UO-11
1 14781U 84021B 22230.49592454 .00000702 00000-0 90852-4 0 9994
2 14781 97.6217 215.1182 0009839 113.6160 246.6089 14.83758524 49243
LO-19
1 20442U 90005G 22230.72946307 .00000099 00000-0 52724-4 0 9995
2 20442 98.7990 196.5585 0011603 351.8297 8.2696 14.33078031702089
HUBBLE
1 20580U 90037B 22230.41126039 .00002326 00000-0 12584-3 0 9995
2 20580 28.4698 118.1959 0002504 346.4162 177.8081 15.10772327575593
MET-2/21
1 22782U 93055A 22230.39194039 .00000029 00000-0 12655-4 0 9994
2 22782 82.5519 325.0804 0022594 170.5277 258.9764 13.83855923462848
AO-27
1 22825U 93061C 22230.35988646 .00000047 00000-0 36161-4 0 9998
2 22825 98.8838 262.6955 0007642 226.2033 133.8517 14.30186226507000
IO-26
1 22826U 93061D 22230.36810885 .00000060 00000-0 40874-4 0 9990
2 22826 98.8782 262.5793 0008374 211.8571 148.2105 14.30533865507512
FO-29
1 24278U 96046B 22230.84167365 -.00000030 00000-0 20874-5 0 9997
2 24278 98.5155 245.9486 0351263 121.3398 242.2623 13.53118888284295
NOAA-15
1 25338U 98030A 22230.86109119 .00000147 00000-0 79433-4 0 9997
2 25338 98.6412 259.5709 0011499 113.6890 246.5498 14.26162496262168
GO-32
1 25397U 98043D 22230.48250578 .00000039 00000-0 36637-4 0 9999
2 25397 98.8213 181.1271 0000499 350.3519 9.7649 14.23766134252256
ISS
1 25544U 98067A 22230.93505244 .00004937 00000-0 93709-4 0 9996
2 25544 51.6434 25.7288 0005501 134.7627 332.5275 15.50223534354917
NO-44
1 26931U 01043C 22230.52838536 .00000033 00000-0 44169-4 0 9992
2 26931 67.0493 258.1703 0006786 257.5333 102.5009 14.30724632 90281
SO-50
1 27607U 02058C 22230.37711146 .00000511 00000-0 90436-4 0 9999
2 27607 64.5546 112.3959 0080809 282.5590 76.6483 14.76205078 57512
CO-55
1 27844U 03031E 22230.81815826 .00000201 00000-0 10968-3 0 9990
2 27844 98.6797 237.5648 0008657 283.7238 76.2976 14.22481216992779
CO-57
1 27848U 03031J 22230.44883225 .00000169 00000-0 96211-4 0 9990
2 27848 98.6842 237.7077 0008680 300.9189 59.1135 14.22034451992496
RS-22
1 27939U 03042A 22230.79049711 .00000551 00000-0 10614-3 0 9992
2 27939 98.2011 11.5242 0013070 17.4308 342.7353 14.67428368 10188
NOAA-18
1 28654U 05018A 22230.81382756 .00000141 00000-0 10004-3 0 9992
2 28654 98.9456 301.1909 0014899 151.9919 208.2058 14.12765763888873
CO-58
1 28895U 05043F 22230.35615736 .00000804 00000-0 16075-3 0 9993
2 28895 98.1143 0.8093 0015504 309.3332 50.6496 14.64430692896707
Falconsat-3
1 30776U 07006E 22230.64664686 .00044211 00000-0 57861-3 0 9993
2 30776 35.4293 211.6072 0004457 255.3217 104.7022 15.57529954859274
CO-65
1 32785U 08021C 22230.42831146 .00001769 00000-0 18987-3 0 9993
2 32785 97.6623 199.3358 0013543 34.8693 325.3409 14.89768056775714
AAUSAT2
1 32788U 08021F 22230.83896974 .00005637 00000-0 48289-3 0 9997
2 32788 97.5381 213.9730 0008701 272.4057 87.6169 14.97904157777871
DO-64
1 32789U 08021G 22230.85706522 .00015339 00000-0 82236-3 0 9999
2 32789 97.3376 254.9419 0012218 106.7046 253.5529 15.15002210781473
CO-66
1 32791U 08021J 22230.44548148 .00002633 00000-0 25871-3 0 9990
2 32791 97.6161 204.7805 0012358 351.2675 8.8328 14.92934406776447
RS-30
1 32953U 08025A 22230.67223894 .00000024 00000-0 10000-3 0 9997
2 32953 82.5047 145.2551 0019909 121.5685 238.7349 12.43112535646064
PRISM
1 33493U 09002B 22230.44831743 .00005827 00000-0 46931-3 0 9994
2 33493 98.2303 220.5537 0016295 345.2363 14.8381 15.00266663738279
NOAA-19
1 33591U 09005A 22230.82216803 .00000143 00000-0 10217-3 0 9996
2 33591 99.1443 266.2573 0014108 17.3271 342.8379 14.12599924697250
SRMSAT
1 37841U 11058D 22230.35811235 .00000369 00000-0 57430-4 0 9996
2 37841 19.9708 240.7278 0011681 304.8350 84.3992 14.10766173559997
HRBE
1 37855U 11061F 22230.67451339 .00011373 00000-0 48901-3 0 9994
2 37855 101.7175 22.7501 0151119 235.7842 122.8977 15.13196098591114
RS-40
1 38735U 12041C 22230.65422551 -.00000011 00000-0 -14749-3 0 9995
2 38735 82.4729 226.7045 0016005 233.8099 126.1506 12.42586686456242
ZACUBE-1
1 39417U 13066B 22230.66785065 .00001250 00000-0 15775-3 0 9998
2 39417 97.6413 199.3795 0056938 199.1413 160.7662 14.82516973472342
Delfi-N3xt
1 39428U 13066N 22230.36341448 .00002914 00000-0 45016-3 0 9999
2 39428 97.8135 162.0680 0118642 79.9672 281.4898 14.69373962467621
GOMX-1
1 39430U 13066Q 22230.60408237 .00000569 00000-0 11013-3 0 9993
2 39430 97.8048 134.2465 0148105 208.4967 150.8079 14.60306225465360
LO-74
1 39440U 13066AA 22230.43917981 .00001611 00000-0 22396-3 0 9991
2 39440 97.7300 185.4091 0077020 290.9406 68.3575 14.77185025470636
AO-73
1 39444U 13066AE 22230.63850385 .00001567 00000-0 19107-3 0 9997
2 39444 97.6293 201.7659 0056103 186.9234 173.1212 14.83630713471331
SPROUT
1 39770U 14029E 22230.58493131 .00005292 00000-0 53397-3 0 9993
2 39770 97.9490 347.9517 0007038 240.5642 119.4774 14.91509694446929
DTUSAT-2
1 40030U 14033W 22230.29226314 .00002012 00000-0 21353-3 0 9998
2 40030 97.9372 163.3183 0010831 203.6490 156.4231 14.90157361442850
EO-80
1 40032U 14033Y 22230.39995878 .00001844 00000-0 19638-3 0 9994
2 40032 97.9376 163.4408 0010749 204.2045 155.8669 14.90130444442848
HODOYOSHI-1
1 40299U 14070B 22230.72042878 .00003669 00000-0 13919-3 0 9993
2 40299 97.2393 297.0227 0010388 277.2948 181.4072 15.27422618432568
FIREBIRD FU3
1 40377U 15003B 22230.47348993 .00016415 00000-0 47104-3 0 9992
2 40377 99.0909 109.2776 0097331 174.0266 186.2156 15.31299932417904
FIREBIRD FU4
1 40378U 15003C 22230.23365937 .00019067 00000-0 54478-3 0 9992
2 40378 99.0913 109.2083 0097235 174.4633 185.7703 15.31396051417885
GRIFEX
1 40379U 15003D 22230.44440900 .00011840 00000-0 40979-3 0 9992
2 40379 99.1045 94.6866 0112622 218.6671 140.6460 15.24165901417071
XW-2A
1 40903U 15049E 22230.71659895 .00018824 00000-0 27381-3 0 9991
2 40903 97.1735 289.4218 0007564 240.9735 273.7272 15.55774595388930
XW-2C
1 40906U 15049H 22230.70711220 .00003893 00000-0 18568-3 0 9991
2 40906 97.4944 233.6466 0014981 136.6507 336.2963 15.19584769382379
XW-2D
1 40907U 15049J 22230.83572024 .00004552 00000-0 21212-3 0 9996
2 40907 97.4937 233.8121 0014433 131.6557 351.8957 15.20311844382442
LILACSAT-2
1 40908U 15049K 22230.80695780 .00002338 00000-0 12462-3 0 9996
2 40908 97.5183 230.7899 0015762 154.7950 324.2223 15.16082541381931
XW-2E
1 40909U 15049L 22230.77894678 .00007495 00000-0 30748-3 0 9996
2 40909 97.4654 238.4269 0013853 113.4334 332.2378 15.24445840382909
XW-2F
1 40910U 15049M 22230.86607819 .00007461 00000-0 31087-3 0 9997
2 40910 97.4726 237.6634 0014674 113.3766 7.0073 15.23911612382686
XW-2B
1 40911U 15049N 22230.73237637 .00004641 00000-0 21694-3 0 9991
2 40911 97.4922 234.2907 0014256 133.2173 341.9821 15.20193134382319
DCBB
1 40912U 15049P 22230.73896987 .00008929 00000-0 33708-3 0 9993
2 40912 97.4365 241.8842 0014638 84.3133 26.0193 15.27153150383257
TW-1A
1 40928U 15051D 22230.81500332 .00044181 00000-0 45754-3 0 9992
2 40928 97.0351 253.1129 0008839 136.4990 312.1898 15.64539199387971
IO-86
1 40931U 15052B 22230.44602848 .00000498 00000-0 -19851-4 0 9995
2 40931 6.0038 86.8673 0013777 327.0761 32.8724 14.76842122372527
AO-85
1 40967U 15058D 22229.16485543 .00001133 00000-0 13608-3 0 4510
2 40967 64.7722 247.2389 0187345 180.8926 179.1836 14.77639840 69631
ATHENOXAT-1
1 41168U 15077C 22230.56400005 .00011349 00000-0 44503-3 0 9996
2 41168 14.9940 349.6040 0009539 31.9268 62.5658 15.22259183369783
ChubuSat-2
1 41338U 16012B 22230.55754279 .00001752 00000-0 12539-3 0 9990
2 41338 31.0039 348.4080 0013310 48.6790 311.4989 15.01556220356822
ChubuSat-3
1 41339U 16012C 22230.74685638 .00001440 00000-0 10177-3 0 9994
2 41339 31.0127 344.1207 0013193 57.7670 302.4246 15.01619543356859
Horyu-4
1 41340U 16012D 22230.58014786 .00003132 00000-0 21698-3 0 9998
2 41340 31.0053 322.2689 0013146 98.8272 261.3853 15.03618532357084
e-st@r-II
1 41459U 16025D 22230.87586899 .00008626 00000-0 36309-3 0 9992
2 41459 98.1924 40.7256 0142642 57.7260 303.7736 15.14775412346940
AAUSAT4
1 41460U 16025E 22230.79836361 .00013014 00000-0 47592-3 0 9990
2 41460 98.1827 47.4410 0121162 31.9401 328.9150 15.21481284347416
LO-87
1 41557U 16033B 22230.83015297 .00010684 00000-0 30694-3 0 9993
2 41557 97.3902 328.6943 0011331 147.9177 6.4227 15.35948163346957
NuSat2
1 41558U 16033C 22230.84608771 .00010577 00000-0 28619-3 0 9995
2 41558 97.4109 334.7612 0011136 138.3843 15.0777 15.37823211347232
Lapan A3
1 41603U 16040E 22230.88416845 .00001025 00000-0 49416-4 0 9994
2 41603 97.2023 265.1853 0011722 306.6835 170.5326 15.20813888341526
Pratham
1 41783U 16059A 22230.37583530 .00000373 00000-0 80486-4 0 9990
2 41783 97.9094 269.4380 0032829 340.6907 19.3049 14.63404527314682
TY-1
1 41844U 16066D 22230.71373205 .00010447 00000-0 34249-3 0 9998
2 41844 97.3891 242.4884 0014590 70.8471 57.2577 15.31714564321138
CAS-2T
1 41847U 16066G 22230.17365107 .00000665 00000-0 10908-3 0 9990
2 41847 98.5468 294.7636 0363890 25.4307 336.4301 14.38694375303223
EO-88
1 42017U 17008BX 22230.60472700 .00017836 00000-0 50509-3 0 9992
2 42017 97.2640 295.8750 0005256 41.4206 318.7436 15.36321571306617
CAS-4B
1 42759U 17034B 22230.74207138 .00003006 00000-0 18333-3 0 9993
2 42759 43.0186 349.2682 0010471 317.8830 160.1978 15.12271757285788
CAS-4A
1 42761U 17034D 22230.77590134 .00003114 00000-0 18897-3 0 9995
2 42761 43.0187 347.8216 0010857 320.6237 166.4412 15.12358839285790
